Location: Big Prairie
(40.6673°N, 82.0952°W)
Time: 14:27:50
(UTC+00:00)

Cosmos 540 Rocket - Pass Details

Date: 03 December 2021
Orbit: 739 x 754 km, 74.1° (Epoch: 20 January)

Event Time Altitude Azimuth Distance (km) Brightness Sun altitude
Rises 22:53:59 0° 195° (SSW) 3,160 7.2 -9.9°
Reaches altitude 10° 22:56:19 10° 194° (SSW) 2,240 6.4 -10.3°
Maximum altitude 23:01:24 82° 107° (ESE) 752 3.4 -11.2°
Drops below altitude 10° 23:06:30 10° 21° (NNE) 2,257 5.6 -12.1°
Enters shadow 23:07:57 - 21° (NNE) 2,823 6.1 -12.4°
